Temp
77 80 86 82 72 71 63 63 69 66 67 70 72 72 72 69 69 65 68 70 70 70 72 75 72 73 73 73 73 74 74 75 75 75 75 75 75 75 75 75 75 75 76 77 78 78 78 77 77
82 79 83 79 69 65 67 68 65 70 69 69 68 67 68 69 67 66 68 68 69 70 71 74 71 72 72 72 72 72 72 72 73 73 74 74 73 73 73 73 73 74 75 76 77 77 77 76 76
80 80 78 74 69 66 67 68 72 69 69 69 67 67 69 67 67 70 70 69 69 69 70 72 70 71 71 71 71 71 71 71 71 71 71 71 72 71 71 71 72 72 73 74 75 75 75 75 75
81 81 77 70 65 68 68 72 72 66 66 68 69 67 65 69 68 71 70 70 69 67 69 69 68 69 70 70 70 69 69 69 69 69 69 69 68 68 69 70 70 70 70 71 72 72 72 72 73
82 79 70 66 65 68 69 72 72 68 70 69 67 69 65 66 68 69 69 69 68 67 66 68 66 67 68 68 68 68 67 67 67 67 67 67 67 67 67 68 68 68 69 69 70 70 70 70 71
76 77 67 65 65 67 70 72 71 72 70 65 65 65 67 68 66 68 69 69 69 66 63 64 61 64 65 65 66 66 66 65 65 65 65 65 64 64 65 66 66 67 67 67 68 68 67 68 69
73 72 67 64 64 64 69 73 70 71 70 68 68 66 66 64 68 67 68 68 67 66 64 64 65 62 61 61 62 62 63 63 63 62 62 61 61 61 62 62 64 65 65 65 66 66 66 65 65
75 74 63 65 65 65 69 70 68 71 70 66 70 69 68 68 67 67 66 66 66 65 65 64 64 64 63 63 58 59 60 60 60 59 59 58 60 60 59 60 60 62 62 63 64 64 64 63 63
71 69 65 65 62 67 68 67 66 65 66 64 67 65 65 69 66 63 62 62 62 62 63 64 63 63 64 63 60 58 57 58 58 59 57 61 63 63 63 57 57 58 59 60 61 61 61 60 63
72 67 67 70 70 68 68 68 69 66 65 64 65 66 61 65 62 61 61 62 62 62 61 63 63 62 62 64 61 61 61 61 60 60 60 61 61 59 59 58 56 57 56 59 59 59 60 62 67
67 67 68 69 70 69 68 65 69 67 65 71 70 72 62 62 62 62 63 65 64 64 62 62 61 62 62 61 62 63 62 61 60 59 58 59 60 59 60 60 60 59 57 61 61 61 62 61 62
65 67 67 67 66 65 65 66 64 66 73 70 72 70 64 61 61 62 63 64 63 60 61 61 62 61 60 61 62 61 61 60 60 58 57 58 59 57 57 57 57 57 58 57 58 58 58 59 60
64 66 65 67 64 65 62 64 66 65 72 73 65 63 63 63 63 64 65 64 62 60 59 60 61 61 60 60 61 60 60 60 59 59 56 57 57 55 56 56 56 56 57 56 56 57 57 58 59
66 63 66 64 64 64 61 65 60 69 65 66 63 64 65 64 64 63 62 61 60 60 59 60 59 60 60 60 59 59 60 58 58 57 55 54 54 53 54 54 54 54 54 54 54 54 55 56 57
62 62 66 64 63 63 61 60 60 72 61 64 62 64 63 63 64 62 62 60 60 59 59 58 58 59 59 58 58 58 58 58 57 56 54 52 52 52 51 52 52 52 52 52 53 54 54 55 56
60 59 59 64 61 60 61 59 71 70 63 65 67 65 61 61 62 63 63 62 61 59 57 58 58 57 57 57 57 57 57 57 56 56 56 52 51 51 50 50 51 50 50 51 51 51 51 52 53
59 60 58 59 62 60 60 60 66 65 61 63 68 67 62 60 61 62 63 61 60 59 57 56 56 56 55 55 55 55 54 55 56 55 54 51 50 49 48 48 49 48 48 48 48 49 49 48 50
61 57 59 57 61 57 57 57 65 69 64 64 68 70 63 59 60 61 60 60 58 58 57 56 55 55 54 54 53 54 54 54 54 53 53 49 49 48 47 47 47 46 46 47 47 46 48 47 49
60 58 58 64 57 56 57 57 62 66 65 65 66 68 64 60 63 62 59 57 55 55 54 55 54 54 54 53 52 52 53 52 52 51 49 48 48 47 45 45 46 46 44 44 44 44 44 45 47
56 56 58 60 53 51 54 52 58 61 63 65 66 69 66 61 61 59 56 54 54 54 53 54 54 53 52 52 50 51 50 51 50 50 49 48 46 45 44 44 44 44 43 43 43 42 41 43 46
55 55 58 54 52 51 49 52 53 59 58 61 63 64 65 60 59 56 53 53 52 52 52 53 53 52 51 49 48 47 47 47 47 48 48 47 44 43 43 42 42 42 42 41 41 42 40 38 42
52 57 53 50 49 49 50 45 57 59 57 60 65 62 59 58 57 56 53 51 51 52 53 52 51 49 49 47 45 45 48 47 49 47 46 45 44 43 42 41 41 41 41 40 41 41 40 39 37
54 50 49 48 48 42 50 42 56 48 52 60 67 66 61 61 58 56 53 52 52 51 51 50 49 48 47 46 46 45 44 45 46 44 42 42 43 42 41 40 40 40 40 40 39 38 38 38 36
48 49 46 44 45 38 51 47 54 56 58 62 67 65 61 58 58 58 56 53 51 51 49 49 47 47 46 46 45 44 43 43 41 41 40 41 42 41 40 39 39 39 39 38 38 38 37 36 36
50 50 45 42 38 41 45 41 52 59 63 62 68 69 61 59 56 55 52 50 49 48 48 47 46 45 45 44 44 43 42 41 40 40 39 39 39 39 40 39 37 38 38 37 36 36 35 35 35
47 52 44 34 40 45 36 38 55 60 64 66 59 59 56 57 56 53 52 51 49 47 47 47 45 45 44 43 42 42 41 40 39 38 38 37 36 37 37 35 35 35 35 35 35 34 34 34 33
45 43 51 41 29 34 50 57 57 53 54 54 55 57 58 57 55 53 53 51 49 47 47 46 45 44 43 42 41 39 38 37 36 36 35 35 36 34 34 34 32 33 33 32 32 32 32 32 32
45 49 41 43 34 34 46 50 52 55 56 54 52 55 59 58 56 53 51 50 49 49 48 47 46 44 42 40 39 38 36 35 35 34 33 33 33 32 30 30 30 30 30 30 30 29 30 30 31
42 43 43 44 40 38 37 47 56 55 60 56 58 61 62 59 57 54 51 51 50 49 47 46 45 42 39 38 37 35 34 32 32 31 31 30 30 29 28 27 26 26 26 27 27 27 27 26 27
50 49 49 41 38 40 43 45 58 58 59 58 60 57 59 59 60 58 53 50 48 47 46 44 43 39 38 37 34 33 32 30 29 30 29 28 26 26 25 24 23 24 24 24 23 22 23 22 22
MSLP
1016.18 1016.14 1015.73 1014.98 1014.29 1013.20 1013.13 1013.83 1014.40 1014.75 1015.37 1016.08 1016.40 1016.29 1016.17 1016.96 1017.24 1019.09 1020.65 1021.07 1021.21 1021.13 1021.15 1020.60 1020.61 1020.40 1020.17 1019.99 1019.77 1019.55 1019.36 1019.27 1019.19 1019.10 1019.02 1019.03 1018.97 1018.83 1018.82 1018.71 1018.60 1018.52 1018.38 1018.29 1018.15 1018.02 1017.91 1017.87 1017.81
1015.97 1015.97 1015.41 1014.41 1013.41 1012.39 1012.68 1013.70 1014.21 1014.73 1015.76 1016.61 1017.14 1017.38 1017.35 1017.27 1018.64 1019.52 1020.41 1021.24 1021.39 1021.46 1021.46 1020.94 1021.01 1020.85 1020.67 1020.43 1020.25 1020.05 1019.91 1019.82 1019.71 1019.57 1019.41 1019.33 1019.24 1019.28 1019.20 1019.06 1018.97 1018.72 1018.46 1018.23 1018.07 1017.97 1017.90 1017.83 1017.83
1015.94 1015.69 1014.66 1013.86 1013.19 1012.24 1012.65 1013.58 1014.04 1015.38 1016.36 1016.67 1017.14 1017.93 1017.78 1017.85 1019.04 1019.48 1020.73 1021.31 1021.49 1021.72 1021.72 1021.49 1021.48 1021.27 1021.05 1020.86 1020.64 1020.51 1020.45 1020.33 1020.14 1020.04 1019.94 1019.88 1019.68 1019.76 1019.68 1019.42 1019.15 1019.07 1018.81 1018.52 1018.23 1018.01 1017.91 1017.79 1017.73
1015.64 1015.33 1014.95 1013.67 1012.79 1012.94 1013.22 1013.64 1014.48 1015.72 1016.74 1017.05 1017.24 1017.39 1018.61 1019.05 1019.34 1019.91 1020.95 1021.35 1021.58 1021.98 1022.04 1021.96 1021.84 1021.56 1021.40 1021.29 1021.22 1021.04 1020.92 1020.84 1020.76 1020.73 1020.60 1020.53 1020.59 1020.56 1020.29 1019.90 1019.70 1019.44 1019.22 1018.96 1018.68 1018.47 1018.22 1017.88 1017.64
1015.50 1014.54 1013.57 1013.21 1013.04 1013.25 1013.83 1014.20 1014.86 1015.37 1015.86 1016.51 1017.38 1017.23 1018.15 1019.49 1020.26 1020.69 1021.05 1021.34 1021.53 1022.04 1022.44 1022.28 1022.22 1022.01 1021.93 1021.78 1021.70 1021.53 1021.43 1021.33 1021.18 1021.23 1021.14 1021.07 1021.04 1020.82 1020.64 1020.35 1020.17 1019.97 1019.73 1019.44 1019.01 1018.72 1018.53 1018.35 1017.90
1014.60 1014.26 1013.25 1012.74 1013.02 1013.56 1014.07 1014.58 1015.10 1015.36 1015.98 1017.02 1017.48 1017.64 1018.05 1019.42 1020.22 1020.79 1021.14 1021.41 1021.74 1022.08 1022.59 1022.72 1022.81 1022.61 1022.42 1022.24 1022.11 1021.94 1021.83 1021.70 1021.68 1021.63 1021.51 1021.49 1021.39 1021.24 1021.02 1020.79 1020.38 1020.14 1019.94 1019.59 1019.22 1019.11 1018.93 1018.62 1018.23
1014.26 1013.74 1013.11 1013.21 1013.37 1013.81 1014.11 1014.99 1015.16 1015.36 1015.96 1016.66 1017.35 1017.33 1018.37 1019.47 1019.92 1020.73 1021.14 1021.55 1021.87 1022.21 1022.50 1022.65 1022.68 1022.98 1022.77 1022.68 1022.48 1022.29 1022.09 1022.02 1021.91 1021.91 1021.89 1021.89 1021.67 1021.58 1021.45 1021.18 1020.76 1020.42 1020.13 1019.77 1019.34 1019.19 1018.94 1018.63 1018.43
1014.70 1013.93 1013.47 1013.41 1013.37 1013.63 1014.44 1015.07 1015.63 1015.68 1015.87 1017.31 1017.46 1016.81 1017.28 1018.32 1019.93 1020.74 1021.27 1021.55 1021.83 1022.14 1022.24 1022.42 1022.58 1022.56 1022.55 1022.68 1022.74 1022.57 1022.44 1022.26 1022.14 1022.07 1022.03 1021.93 1021.77 1021.75 1021.73 1021.41 1021.21 1020.90 1020.55 1020.28 1019.86 1019.52 1019.09 1018.85 1018.59
1015.26 1014.13 1013.22 1013.26 1013.76 1013.72 1014.83 1015.04 1015.86 1016.45 1016.49 1017.02 1017.11 1017.29 1018.12 1018.51 1019.91 1020.62 1021.09 1021.45 1021.75 1022.03 1022.17 1022.25 1022.35 1022.40 1022.50 1022.59 1022.79 1022.74 1022.69 1022.48 1022.23 1022.14 1022.18 1021.83 1021.76 1021.62 1021.51 1021.71 1021.52 1021.16 1020.88 1020.46 1020.12 1019.77 1019.57 1019.08 1018.34
1014.92 1014.26 1013.54 1013.76 1013.89 1014.11 1014.73 1015.09 1015.25 1015.91 1015.85 1016.09 1016.55 1017.30 1018.44 1018.91 1019.65 1019.92 1020.19 1020.42 1020.89 1021.36 1021.98 1022.09 1022.16 1022.30 1022.40 1022.48 1022.76 1022.74 1022.77 1022.61 1022.44 1022.32 1022.26 1022.09 1022.03 1022.14 1021.93 1021.79 1021.72 1021.36 1021.03 1020.39 1020.09 1019.76 1019.45 1018.84 1018.26
1015.14 1014.32 1014.27 1014.17 1014.54 1014.79 1014.91 1015.15 1015.34 1015.19 1014.65 1014.33 1014.57 1015.57 1017.64 1018.39 1018.90 1019.19 1019.46 1019.66 1020.23 1020.88 1021.58 1021.88 1022.05 1022.20 1022.34 1022.61 1022.71 1022.68 1022.75 1022.63 1022.53 1022.54 1022.45 1022.45 1022.34 1022.30 1022.07 1021.95 1021.70 1021.35 1021.04 1020.45 1020.02 1019.65 1019.21 1019.21 1019.00
1015.11 1014.74 1014.75 1014.64 1014.98 1015.23 1015.11 1015.19 1014.93 1014.61 1013.22 1014.15 1014.62 1015.35 1016.60 1017.29 1017.79 1018.08 1018.52 1019.08 1019.79 1020.60 1021.19 1021.66 1021.86 1022.10 1022.30 1022.43 1022.51 1022.57 1022.46 1022.54 1022.53 1022.77 1022.84 1022.63 1022.43 1022.43 1022.32 1022.06 1021.82 1021.45 1021.27 1020.93 1020.53 1019.98 1019.61 1019.03 1018.75
1015.18 1014.77 1014.93 1014.90 1015.15 1015.16 1015.34 1014.84 1014.58 1013.55 1013.41 1014.02 1015.03 1015.70 1016.10 1016.62 1017.00 1017.54 1018.26 1019.09 1019.66 1020.10 1020.77 1021.28 1021.66 1021.76 1021.92 1022.06 1022.16 1022.21 1022.32 1022.50 1022.58 1022.63 1022.88 1022.78 1022.60 1022.59 1022.50 1022.32 1022.12 1021.95 1021.65 1021.25 1020.69 1020.08 1019.50 1018.98 1018.54
1015.18 1015.09 1014.78 1014.83 1014.93 1014.98 1014.90 1014.31 1014.83 1012.59 1013.35 1013.77 1014.53 1014.84 1015.44 1015.82 1016.27 1017.19 1017.69 1018.23 1019.06 1019.73 1020.29 1020.76 1021.17 1021.46 1021.72 1021.90 1022.02 1022.10 1022.29 1022.54 1022.58 1022.70 1022.89 1023.06 1023.05 1023.05 1022.90 1022.69 1022.47 1022.10 1021.85 1021.63 1021.10 1020.45 1019.78 1019.21 1018.58
1015.57 1015.01 1014.40 1014.30 1014.65 1014.74 1014.87 1013.97 1012.77 1011.90 1013.34 1013.41 1013.75 1014.05 1014.59 1015.06 1015.91 1015.89 1016.52 1017.22 1018.15 1019.04 1019.85 1020.44 1020.79 1021.19 1021.44 1021.63 1021.68 1022.02 1022.30 1022.43 1022.46 1022.73 1023.07 1023.30 1023.45 1023.32 1023.01 1022.65 1022.40 1022.29 1022.22 1021.85 1021.13 1020.49 1019.86 1019.18 1018.58
1015.36 1015.08 1013.88 1013.64 1014.33 1014.72 1014.79 1011.80 1011.34 1011.76 1012.52 1012.32 1012.47 1013.00 1013.64 1014.16 1014.57 1015.36 1016.18 1016.99 1017.74 1018.55 1019.25 1019.94 1020.49 1020.93 1021.16 1021.37 1021.60 1021.99 1022.25 1022.29 1022.45 1022.76 1023.01 1023.34 1023.29 1023.22 1023.02 1022.89 1022.77 1022.79 1022.57 1021.93 1021.23 1020.61 1020.00 1019.49 1018.68
1014.51 1013.40 1013.30 1013.40 1013.77 1014.32 1014.34 1011.91 1011.26 1011.58 1011.89 1011.33 1011.18 1011.74 1012.38 1013.09 1014.03 1014.62 1015.44 1016.43 1017.22 1017.99 1018.89 1019.81 1020.41 1020.74 1021.08 1021.46 1021.73 1022.09 1022.24 1022.16 1022.34 1022.63 1022.85 1022.97 1023.12 1023.22 1023.24 1022.97 1022.67 1022.71 1022.39 1021.80 1021.41 1020.79 1020.36 1019.73 1018.90
1012.67 1012.82 1012.73 1012.89 1013.49 1014.09 1013.61 1012.04 1010.84 1010.26 1010.92 1009.93 1009.35 1010.05 1011.05 1011.95 1012.26 1013.45 1014.79 1015.75 1016.78 1017.63 1018.35 1019.04 1019.71 1020.17 1020.70 1021.23 1021.70 1021.90 1021.91 1022.01 1022.38 1022.51 1022.75 1023.01 1023.14 1023.27 1023.23 1022.99 1022.72 1022.65 1022.45 1021.82 1021.46 1021.04 1020.63 1020.17 1019.10
1013.00 1012.81 1012.39 1012.09 1013.46 1013.79 1012.62 1011.84 1010.44 1009.44 1009.37 1008.28 1008.09 1008.50 1009.51 1010.52 1011.46 1012.78 1014.23 1015.62 1016.63 1017.39 1018.09 1018.70 1019.37 1019.88 1020.40 1020.78 1021.09 1021.28 1021.20 1021.78 1021.91 1022.06 1022.32 1022.60 1022.72 1022.91 1022.85 1022.49 1022.17 1022.21 1022.02 1021.67 1021.33 1020.96 1020.46 1019.71 1019.29
1013.57 1013.13 1012.37 1012.64 1013.53 1013.95 1012.58 1011.18 1009.96 1009.25 1008.01 1007.41 1006.93 1006.71 1008.05 1009.65 1010.87 1012.22 1013.76 1015.08 1015.74 1016.60 1017.58 1018.21 1018.74 1019.32 1019.84 1020.26 1020.70 1020.95 1021.32 1021.49 1021.64 1021.79 1022.00 1022.28 1022.54 1022.41 1022.32 1022.49 1022.34 1021.94 1021.34 1020.91 1020.88 1020.85 1020.39 1019.70 1018.98
1013.67 1013.24 1012.74 1013.38 1013.68 1013.60 1012.77 1009.80 1008.93 1007.77 1007.46 1006.53 1005.91 1006.29 1007.31 1008.56 1009.78 1011.37 1012.93 1013.96 1015.15 1015.89 1016.64 1017.43 1018.14 1018.80 1019.40 1019.98 1020.55 1021.09 1021.54 1021.75 1021.78 1021.68 1021.76 1021.79 1021.82 1022.20 1022.26 1022.20 1022.05 1021.64 1021.28 1020.72 1020.34 1019.92 1019.67 1019.38 1018.98
1014.01 1013.43 1013.73 1014.02 1014.33 1013.07 1013.08 1007.12 1007.39 1006.71 1006.43 1006.07 1004.74 1005.66 1006.59 1007.74 1009.17 1010.54 1011.78 1012.89 1013.74 1014.58 1015.99 1016.88 1017.66 1018.43 1019.22 1019.90 1020.35 1020.58 1020.77 1020.83 1020.81 1021.41 1021.65 1021.79 1022.09 1022.22 1022.23 1021.87 1021.36 1020.82 1020.38 1020.13 1019.61 1019.43 1019.40 1019.26 1018.33
1014.05 1014.31 1014.43 1014.53 1014.21 1013.81 1012.21 1010.53 1005.59 1006.09 1005.58 1004.73 1003.77 1004.30 1005.36 1006.52 1008.09 1009.40 1010.70 1011.95 1013.26 1014.60 1015.38 1016.29 1017.25 1018.00 1018.68 1019.41 1020.02 1020.54 1020.80 1021.06 1021.39 1021.69 1021.63 1021.44 1021.56 1021.59 1021.41 1021.39 1020.89 1020.49 1019.94 1019.53 1019.46 1019.34 1019.30 1019.06 1018.53
1015.05 1014.94 1014.96 1014.88 1014.25 1011.98 1009.82 1008.91 1003.90 1004.26 1004.11 1003.80 1003.23 1003.82 1004.78 1006.08 1007.33 1008.76 1010.31 1011.77 1012.91 1014.16 1015.08 1015.75 1016.62 1017.41 1018.10 1018.78 1019.47 1019.97 1020.45 1020.81 1021.11 1021.37 1021.47 1021.38 1021.21 1021.22 1021.22 1020.63 1020.32 1020.08 1019.81 1019.36 1019.45 1019.41 1019.15 1019.06 1018.68
1015.19 1014.75 1014.02 1013.29 1012.89 1009.02 1008.72 1007.69 1002.90 1003.65 1003.17 1003.24 1002.74 1003.46 1004.82 1006.05 1007.04 1008.11 1009.47 1010.77 1011.92 1012.92 1013.98 1014.82 1015.69 1016.48 1017.54 1018.35 1019.03 1019.66 1020.10 1020.52 1020.96 1021.13 1021.06 1021.08 1021.23 1020.84 1020.30 1020.46 1020.39 1020.18 1019.95 1019.62 1019.51 1019.29 1018.82 1018.59 1018.26
1014.00 1013.80 1013.24 1011.54 1010.70 1007.97 1008.38 1004.34 1001.48 1002.55 1002.53 1002.64 1003.30 1004.13 1005.05 1005.76 1006.84 1007.80 1008.71 1009.79 1010.70 1012.00 1013.15 1014.06 1014.88 1015.75 1016.86 1017.87 1018.56 1019.17 1019.69 1020.30 1020.74 1021.02 1021.27 1021.36 1021.26 1020.71 1020.55 1020.73 1020.43 1019.77 1019.60 1019.46 1019.09 1018.85 1018.39 1017.76 1017.65
1013.97 1013.51 1012.00 1011.49 1011.37 1009.42 1004.61 1001.07 1000.98 1001.86 1002.42 1002.91 1003.23 1003.57 1004.01 1005.13 1006.08 1007.16 1008.14 1008.99 1010.01 1010.93 1011.53 1012.36 1013.71 1015.15 1016.17 1017.10 1017.93 1018.67 1019.34 1019.81 1020.07 1020.60 1020.73 1020.76 1020.83 1020.87 1020.79 1020.44 1020.02 1019.77 1019.42 1019.19 1018.53 1018.14 1017.95 1017.53 1017.10
1013.28 1012.61 1012.41 1011.82 1010.43 1007.93 1002.31 1000.43 999.85 1000.92 1000.85 1002.02 1002.75 1003.05 1003.08 1004.18 1005.34 1006.40 1007.30 1008.27 1008.86 1009.70 1010.93 1012.14 1012.90 1013.84 1015.23 1016.59 1017.61 1018.27 1018.88 1019.29 1019.78 1020.22 1020.36 1020.43 1020.52 1020.57 1020.35 1020.03 1019.66 1019.46 1019.14 1018.93 1018.47 1017.90 1017.60 1017.17 1016.61
1012.76 1011.97 1011.64 1010.98 1009.16 1007.22 1004.38 998.50 998.88 999.10 999.59 1000.94 1001.43 1001.91 1002.66 1003.48 1004.00 1005.23 1006.37 1007.07 1008.31 1009.13 1010.08 1011.05 1012.37 1013.24 1014.46 1015.74 1016.98 1017.90 1018.43 1018.96 1019.40 1019.64 1020.04 1020.11 1020.11 1020.10 1019.86 1019.53 1019.09 1018.98 1018.71 1018.67 1017.98 1017.13 1016.42 1016.06 1015.52
1010.31 1009.61 1009.28 1008.88 1007.74 1006.52 1004.39 999.65 997.03 999.03 999.72 1000.51 1001.16 1001.58 1002.19 1002.93 1003.61 1004.41 1005.45 1006.35 1007.11 1007.92 1008.96 1010.00 1011.62 1012.54 1013.53 1015.02 1016.17 1017.15 1017.93 1018.29 1018.72 1018.85 1019.28 1019.65 1019.67 1019.60 1019.40 1019.30 1019.07 1018.63 1018.37 1017.94 1017.59 1016.94 1016.42 1015.84 1014.93
Wind_Speed
4 1 1 4 5 4 4 5 1 6 6 3 3 6 10 3 3 1 5 4 3 4 6 8 11 10 11 12 12 12 13 13 13 13 13 13 13 14 16 14 14 12 9 10 11 11 12 10 7
6 2 2 1 4 4 4 5 9 8 4 8 6 4 4 4 2 7 7 4 4 4 5 8 9 10 11 12 12 12 13 12 12 12 12 13 15 15 13 12 11 12 12 11 11 11 12 12 11
3 1 3 2 2 4 1 8 8 5 11 5 5 2 1 1 4 9 7 7 5 5 5 9 9 10 11 12 13 14 14 14 14 14 12 12 11 13 12 13 12 14 13 12 12 12 13 12 12
3 4 3 5 4 1 2 7 7 10 6 4 1 4 3 1 5 6 10 8 7 6 6 8 9 10 11 11 12 13 14 15 15 15 14 16 15 13 13 15 15 14 13 12 12 13 13 13 12
1 2 3 3 3 2 3 4 10 13 7 6 6 2 3 4 6 11 10 7 7 7 6 7 9 9 9 11 12 12 13 14 15 14 13 15 15 15 14 14 13 14 15 16 15 14 13 14 14
3 3 5 5 3 3 3 6 9 11 5 4 5 3 1 6 13 11 9 8 6 7 5 5 7 9 10 11 11 12 12 13 13 14 14 13 14 14 14 14 15 15 14 14 13 14 16 16 15
3 3 2 3 2 3 3 8 11 12 9 8 1 5 3 11 13 12 10 8 7 6 6 5 6 8 10 11 11 11 11 11 11 12 12 11 12 13 13 12 13 13 13 14 12 13 13 13 14
1 2 3 3 3 3 5 9 1 11 11 3 4 7 4 13 16 13 10 9 8 7 6 6 6 6 6 6 9 10 10 11 11 11 10 9 8 9 11 13 14 14 14 14 13 13 14 14 13
1 4 4 3 5 2 6 9 5 1 5 5 8 4 3 12 17 14 11 10 8 7 6 6 6 6 6 6 5 7 9 10 9 7 9 5 6 8 9 10 13 13 13 13 14 14 14 14 10
4 3 2 0 3 3 5 9 5 6 8 9 8 10 5 18 17 17 16 14 13 11 8 6 6 6 5 4 5 5 5 5 6 7 7 5 6 7 8 7 12 12 14 11 12 12 13 10 8
1 4 1 2 5 4 4 5 5 7 12 14 15 13 15 20 20 19 18 16 14 11 8 8 7 6 6 4 3 2 2 3 4 7 6 6 4 5 5 4 5 7 9 7 9 8 6 9 8
4 4 3 1 2 4 5 3 6 14 18 2 6 6 18 22 22 22 20 18 15 14 11 9 8 7 6 4 3 4 3 3 3 4 6 4 3 5 6 5 7 7 6 9 8 6 8 9 10
5 3 4 4 4 6 3 11 9 15 17 11 4 8 16 19 21 20 18 16 16 15 13 11 9 8 7 6 4 4 3 3 3 4 6 5 5 5 5 6 6 6 7 7 8 8 9 9 10
2 4 7 5 5 6 6 6 3 4 2 10 11 14 15 20 22 19 20 19 17 15 14 12 11 8 8 6 5 4 3 4 3 4 4 6 5 5 5 6 6 7 8 8 8 9 9 9 10
1 7 7 9 4 5 4 9 13 16 6 9 13 14 16 19 19 25 22 21 19 16 15 14 12 10 9 7 5 4 3 3 3 3 4 4 5 5 7 6 7 7 8 10 9 9 9 9 9
3 3 5 5 7 3 4 16 10 4 9 14 15 14 16 20 23 22 20 20 19 17 17 14 10 11 9 6 4 3 3 2 2 2 1 3 5 6 6 6 6 7 8 8 8 9 10 10 10
5 10 9 5 9 4 11 16 4 6 8 16 18 16 16 17 20 21 21 21 19 18 17 14 11 11 9 7 4 4 4 2 1 0 1 4 5 6 6 6 6 7 7 7 7 8 9 10 11
10 8 8 11 5 9 11 21 23 22 16 25 25 19 18 18 24 23 22 21 19 18 16 15 12 12 11 7 5 4 3 2 1 2 2 3 4 5 6 6 7 7 7 7 7 9 9 11 11
7 8 16 14 4 6 16 20 25 24 21 26 25 21 17 21 18 19 20 19 18 18 17 16 15 13 9 7 5 4 4 3 2 3 4 5 5 6 6 6 7 7 7 8 9 9 11 8 10
8 13 20 13 2 7 14 22 24 24 27 24 25 22 16 16 16 18 20 21 21 20 18 17 16 14 10 6 4 2 2 1 3 4 6 6 5 6 6 7 8 8 7 8 8 9 8 8 5
11 17 14 10 6 7 12 17 8 8 11 14 21 18 14 16 17 19 21 23 21 21 21 18 17 14 11 9 6 4 2 3 4 6 4 4 6 6 7 8 9 8 7 7 8 8 9 8 8
13 9 11 7 5 12 4 23 10 9 11 13 21 12 12 15 14 17 21 23 24 22 19 19 16 14 11 11 7 8 6 6 4 3 5 6 7 8 8 9 9 8 7 9 8 7 8 9 10
5 2 4 3 8 6 11 13 8 2 7 18 20 10 15 14 15 18 20 20 21 19 18 18 16 15 13 12 10 8 9 5 4 5 8 8 9 9 8 9 9 10 8 9 10 11 11 10 10
9 3 2 1 3 11 16 16 6 5 7 8 12 10 9 12 13 13 14 17 18 18 18 18 18 16 15 14 14 13 10 8 7 7 5 6 7 7 9 9 10 10 10 10 10 11 13 13 13
5 5 6 7 6 14 4 9 20 15 14 14 19 8 8 9 11 13 16 18 19 21 21 18 20 19 16 15 14 12 11 10 9 7 7 7 7 7 9 9 10 9 11 11 12 13 14 14 14
12 9 7 12 13 21 7 14 14 10 14 17 7 5 4 8 8 12 16 17 20 20 23 22 21 20 18 15 14 12 11 6 7 7 5 6 8 9 9 9 10 12 13 13 13 12 12 14 14
9 10 2 4 3 9 12 24 9 7 10 8 15 12 14 11 11 13 15 17 18 20 23 23 22 19 18 16 13 12 10 9 7 7 7 7 9 7 10 11 11 12 13 14 14 12 15 15 16
5 4 5 4 7 17 25 31 19 10 15 9 11 16 15 10 10 12 14 17 17 19 20 22 22 21 19 16 12 10 10 8 6 6 9 8 9 9 10 10 11 12 13 14 14 13 15 16 14
7 7 5 4 6 10 19 22 3 6 4 12 13 14 11 13 13 13 14 16 16 17 20 20 21 21 18 15 13 11 9 8 6 6 6 7 8 9 10 10 10 12 13 14 14 15 16 18 19
9 15 18 11 11 10 13 31 8 5 4 4 6 6 8 9 12 12 13 15 17 19 20 21 20 19 17 15 13 11 9 8 7 6 6 6 8 8 9 10 11 12 13 13 14 16 16 18 20
Wind_Direction
122 136 293 236 232 239 153 172 222 171 181 116 135 202 210 1 204 356 120 74 72 55 20 43 40 39 48 51 53 55 56 54 53 53 51 44 42 37 34 32 30 19 354 336 333 329 330 336 325
138 157 220 237 253 240 135 156 199 179 113 127 138 143 190 195 133 135 156 114 108 71 33 57 41 55 56 51 51 56 60 59 57 54 48 51 51 46 40 33 26 23 15 1 343 334 328 335 336
126 274 247 240 255 276 243 185 181 154 145 162 154 256 176 159 152 147 105 115 113 94 48 58 47 57 57 56 58 60 55 55 55 55 52 52 53 45 35 37 35 31 21 16 8 3 353 342 334
188 167 158 250 255 228 292 178 162 147 184 220 222 201 196 38 153 147 134 128 114 90 65 65 55 59 59 58 58 56 53 52 53 53 50 56 47 41 37 37 31 27 22 14 6 4 359 355 344
201 222 226 239 228 256 216 196 178 176 171 174 186 178 223 167 125 138 142 138 117 96 75 67 57 61 62 62 61 61 61 56 54 52 50 51 43 39 36 31 28 22 14 8 6 5 1 354 351
199 278 236 253 209 232 212 185 186 207 191 139 204 223 190 127 156 153 152 133 121 111 95 97 64 64 68 65 63 62 63 63 60 54 51 48 43 36 31 24 21 15 9 6 5 4 359 358 353
266 234 295 291 284 241 206 163 205 206 215 215 25 235 100 172 165 159 151 141 133 125 131 121 104 94 78 68 67 65 69 70 67 63 55 48 46 38 32 27 19 15 7 360 1 357 353 351 346
233 250 200 203 220 244 161 177 220 211 218 72 200 237 203 183 163 158 156 155 154 145 139 123 121 112 97 90 69 74 77 78 72 61 52 43 41 33 29 18 15 10 8 360 354 347 344 339 333
233 235 241 224 195 142 158 205 162 134 206 210 200 245 81 156 162 166 167 170 166 159 152 145 137 133 128 113 95 93 78 74 71 62 45 47 27 19 12 16 6 7 2 358 354 348 339 332 313
245 256 250 229 189 236 195 224 192 206 200 224 225 211 162 163 176 182 188 186 186 175 165 157 158 145 139 123 112 93 82 64 59 50 42 32 23 16 358 359 353 354 357 350 349 346 333 327 330
175 270 172 229 233 221 225 228 202 234 237 235 222 212 184 181 188 194 199 197 190 177 170 171 167 159 150 138 140 123 97 85 66 52 40 32 23 12 8 352 352 351 356 351 345 339 340 332 321
242 244 238 275 188 189 220 149 221 225 248 8 274 208 183 189 195 200 200 193 182 179 175 174 173 165 150 155 149 141 125 102 87 68 45 29 24 14 6 1 351 349 347 338 335 330 324 319 313
229 210 225 253 252 240 196 239 253 245 247 238 242 194 197 201 203 203 200 194 187 185 177 177 176 172 161 166 161 139 119 95 80 68 50 25 20 12 356 350 344 339 337 335 328 328 327 322 314
164 258 262 265 248 238 236 245 221 243 201 222 224 224 213 210 205 197 199 194 192 186 182 173 177 177 171 168 155 134 117 101 81 67 48 33 10 360 346 345 340 336 341 334 324 326 323 315 313
330 290 275 222 221 235 213 253 234 254 196 233 225 227 220 217 205 209 200 195 188 186 179 183 177 175 175 164 140 133 121 113 91 69 55 30 3 351 346 337 333 337 332 321 320 322 318 315 310
239 247 255 156 176 160 214 277 253 272 228 245 238 227 217 217 212 213 203 199 193 187 185 179 177 176 170 153 136 146 149 112 99 73 4 353 354 349 339 330 321 328 316 319 320 324 322 314 310
210 272 230 268 210 155 215 279 258 203 232 262 257 244 228 220 213 213 204 201 193 186 184 183 181 177 168 163 162 176 177 172 103 42 319 350 337 330 320 306 303 314 310 311 315 315 313 311 310
262 244 250 263 179 215 231 258 278 273 253 262 270 259 240 220 215 207 202 200 191 188 185 181 181 180 177 172 173 180 175 189 222 226 258 277 289 291 299 305 306 302 298 302 312 308 310 305 305
269 259 260 266 194 246 255 262 268 280 274 262 269 262 246 232 224 205 200 194 189 189 187 189 185 185 181 183 186 189 187 188 240 215 252 254 284 291 297 294 295 290 294 310 311 307 308 309 315
232 260 264 280 247 222 274 272 273 267 267 269 271 268 249 239 222 204 196 195 193 189 191 192 192 186 191 185 171 165 166 227 267 260 251 252 288 284 292 298 295 290 292 299 308 315 306 301 307
226 236 255 268 325 234 292 271 239 254 265 271 260 259 250 227 214 201 201 199 194 194 193 193 193 189 186 176 158 154 194 247 239 231 240 261 269 288 285 278 279 290 301 299 294 294 296 293 296
240 230 245 266 294 282 2 290 277 249 243 264 272 236 221 216 213 203 201 201 198 196 192 193 189 185 182 177 182 199 215 226 222 269 270 282 292 293 281 283 286 294 286 279 281 283 282 284 278
250 109 172 208 256 316 251 268 277 164 240 258 261 248 221 208 201 201 202 202 199 191 189 189 186 183 178 183 192 197 217 237 268 282 287 288 290 282 287 283 285 279 274 278 280 281 275 271 273
134 121 144 155 259 250 256 227 267 230 210 247 265 228 202 197 196 205 200 198 196 192 191 186 186 186 183 184 192 202 212 218 230 240 260 266 272 289 277 269 272 277 282 280 284 283 278 278 274
198 182 275 251 222 264 144 236 263 283 240 232 255 250 186 182 185 188 190 192 191 193 193 187 187 188 185 189 193 199 207 218 236 245 249 268 279 269 267 284 292 295 297 295 289 282 277 275 273
184 218 203 260 276 288 112 249 276 226 252 247 271 261 194 213 205 203 195 195 193 192 195 191 190 188 185 188 191 194 202 211 224 241 264 267 266 272 291 293 291 291 295 293 288 283 277 274 273
161 199 240 291 108 279 252 261 233 183 251 250 253 245 240 232 206 205 203 197 195 195 196 193 187 189 185 185 185 189 192 202 214 228 241 255 264 281 292 292 295 296 291 287 285 279 280 279 276
229 137 141 199 258 257 275 281 278 235 241 210 237 238 239 221 214 209 204 204 201 198 197 195 190 186 180 181 184 184 187 198 210 228 242 259 277 283 286 291 296 297 293 289 286 284 280 278 275
169 203 227 314 228 254 266 269 101 171 256 206 218 231 239 226 216 207 211 203 207 199 195 191 190 183 175 176 174 179 185 190 207 231 257 268 279 283 289 299 299 295 293 291 287 283 282 278 277
256 231 214 222 223 237 262 272 116 58 145 180 234 242 236 232 217 213 210 203 200 201 194 191 187 180 173 171 171 181 180 188 208 226 250 268 280 289 298 306 299 293 291 293 291 290 286 284 283